Regional Weather Roundup
Issued by NWS

Home | Current Version | Previous Version | Text Only | Print | Product List | Glossary On
Versions: 1 2 3 4 5 6 7 8 9 10 11 12 13 14 15 16 17 18 19 20 21 22 23 24 25 26 27 28 29 30 31 32 33 34 35 36 37 38 39 40 41 42 43 44 45 46 47 48 49 50
000
ASUS44 KOUN 042310
RWROK

WEATHER ROUNDUP FOR OKLAHOMA
NATIONAL WEATHER SERVICE NORMAN OK
600 PM CDT FRI SEP 04 2015

NOTE: "FAIR" INDICATES FEW OR NO CLOUDS BELOW 12,000 FEET WITH NO
      SIGNIFICANT WEATHER AND/OR OBSTRUCTIONS TO VISIBILITY.

OKZ001>007-009>012-014-015-017-050000-
NORTHWEST OKLAHOMA AND THE PANHANDLE

CITY           SKY/WX    TMP DP  RH WIND       PRES   REMARKS
GAGE           SUNNY     95  60  31 S16G28    29.89S HX  95
GUYMON         SUNNY     94  52  24 S23G31    29.87S HX  91
ENID/WOODRING  MOSUNNY   95  63  34 S12       29.88S HX  96
$$

OKZ016-021>023-033>039-044-045-050000-
SOUTHWEST OKLAHOMA

CITY           SKY/WX    TMP DP  RH WIND       PRES   REMARKS
LAWTON/REGL    SUNNY     95  63  34 SE10      29.87F HX  96
LAWTON/FT SILL MOSUNNY   95  66  37 SE15      29.87F HX  98
FREDERICK      SUNNY     96  63  33 SE12      29.85S HX  97
CLINTON        SUNNY     93  59  31 S21       29.92S HX  92
HOBART         SUNNY     96  60  30 S14       29.89F HX  96
ALTUS AFB      SUNNY     94  62  34 SE13      29.87F HX  94
$$

OKZ018>020-024>031-050000-
CENTRAL OKLAHOMA

CITY           SKY/WX    TMP DP  RH WIND       PRES   REMARKS
OKLAHOMA CITY  MOSUNNY   92  66  42 S10       29.91S HX  94
OKC/WILEY POST SUNNY     93  65  39 S10       29.90F HX  95
OKC/TINKER AFB SUNNY     92  66  41 S10       29.90F HX  95
STILLWATER     SUNNY     92  67  43 S13       29.90S HX  95
GUTHRIE        SUNNY     94  64  37 S12       29.90S HX  95
$$

OKZ008-013-054>072-050000-
NORTHEAST OKLAHOMA

CITY           SKY/WX    TMP DP  RH WIND       PRES   REMARKS
TULSA          MOSUNNY   92  70  48 S9        29.90F HX  97
TULSA/JONES    SUNNY     93  68  43 S7        29.91S HX  97
PONCA CITY     SUNNY     93  67  42 S12       29.89F HX  96
BARTLESVILLE   MOSUNNY   89  71  55 SE9       29.92F HX  95
MUSKOGEE       SUNNY     90  72  55 SE6       29.94S HX  97
$$

OKZ032-040>043-046>053-073>077-050000-
SOUTH CENTRAL/SOUTHEAST OKLAHOMA

CITY           SKY/WX    TMP DP  RH WIND       PRES   REMARKS
ARDMORE/DWNTWN SUNNY     91  61  35 SE9       29.90S HX  91
MCALESTER      MOSUNNY   93  70  46 E6        29.92S HX  99
$$




USA.gov is the U.S. government's official web portal to all federal, state and local government web resources and services.